Year,Month,Day,Hour,Minute,Value (Times are PST for temperature in C)
2013,07,25,00,00,11.10
2013,07,25,00,01,11.10
2013,07,25,00,02,11.10
2013,07,25,00,03,11.10
2013,07,25,00,04,11.10
2013,07,25,00,05,11.10
2013,07,25,00,06,11.10
2013,07,25,00,07,11.10
2013,07,25,00,08,11.10
2013,07,25,00,09,11.20
2013,07,25,00,10,11.20
2013,07,25,00,11,11.10
2013,07,25,00,12,11.10
2013,07,25,00,13,11.10
2013,07,25,00,14,11.10
2013,07,25,00,15,11.10
2013,07,25,00,16,11.10
2013,07,25,00,17,11.10
2013,07,25,00,18,11.10
2013,07,25,00,19,11.10
2013,07,25,00,20,11.10
2013,07,25,00,21,11.10
2013,07,25,00,22,11.10
2013,07,25,00,23,11.10
2013,07,25,00,24,11.10
2013,07,25,00,25,11.10
2013,07,25,00,26,11.10
2013,07,25,00,27,11.10
2013,07,25,00,28,11.10
2013,07,25,00,29,11.10
2013,07,25,00,30,11.10
2013,07,25,00,31,11.10
2013,07,25,00,32,11.10
2013,07,25,00,33,11.10
2013,07,25,00,34,11.10
2013,07,25,00,35,11.10
2013,07,25,00,36,11.10
2013,07,25,00,37,11.10
2013,07,25,00,38,11.10
2013,07,25,00,39,11.10
2013,07,25,00,40,11.10
2013,07,25,00,41,11.10
2013,07,25,00,42,11.10
2013,07,25,00,43,11.10
2013,07,25,00,44,11.10
2013,07,25,00,45,11.10
2013,07,25,00,46,11.10
2013,07,25,00,47,11.10
2013,07,25,00,48,11.10
2013,07,25,00,49,11.10
2013,07,25,00,50,11.10
2013,07,25,00,51,11.20
2013,07,25,00,52,11.20
2013,07,25,00,53,11.20
2013,07,25,00,54,11.20
2013,07,25,00,55,11.10
2013,07,25,00,56,11.10
2013,07,25,00,57,11.10
2013,07,25,00,58,11.10
2013,07,25,00,59,11.10
2013,07,25,01,00,11.20
2013,07,25,01,01,11.20
2013,07,25,01,02,11.20
2013,07,25,01,03,11.10
2013,07,25,01,04,11.10
2013,07,25,01,05,11.10
2013,07,25,01,06,11.10
2013,07,25,01,07,11.10
2013,07,25,01,08,11.10
2013,07,25,01,09,11.10
2013,07,25,01,10,11.10
2013,07,25,01,11,11.10
2013,07,25,01,12,11.00
2013,07,25,01,13,11.00
2013,07,25,01,14,10.90
2013,07,25,01,15,10.90
2013,07,25,01,16,10.80
2013,07,25,01,17,10.80
2013,07,25,01,18,10.80
2013,07,25,01,19,10.80
2013,07,25,01,20,10.70
2013,07,25,01,21,10.70
2013,07,25,01,22,10.70
2013,07,25,01,23,10.70
2013,07,25,01,24,10.70
2013,07,25,01,25,10.70
2013,07,25,01,26,10.70
2013,07,25,01,27,10.70
2013,07,25,01,28,10.60
2013,07,25,01,29,10.60
2013,07,25,01,30,10.60
2013,07,25,01,31,10.60
2013,07,25,01,32,10.60
2013,07,25,01,33,10.60
2013,07,25,01,34,10.60
2013,07,25,01,35,10.60
2013,07,25,01,36,10.60
2013,07,25,01,37,10.60
2013,07,25,01,38,10.60
2013,07,25,01,39,10.50
2013,07,25,01,40,10.50
2013,07,25,01,41,10.50
2013,07,25,01,42,10.50
2013,07,25,01,43,10.50
2013,07,25,01,44,10.50
2013,07,25,01,45,10.50
2013,07,25,01,46,10.50
2013,07,25,01,47,10.50
2013,07,25,01,48,10.40
2013,07,25,01,49,10.40
2013,07,25,01,50,10.40
2013,07,25,01,51,10.40
2013,07,25,01,52,10.40
2013,07,25,01,53,10.40
2013,07,25,01,54,10.40
2013,07,25,01,55,10.40
2013,07,25,01,56,10.40
2013,07,25,01,57,10.40
2013,07,25,01,58,10.40
2013,07,25,01,59,10.40
2013,07,25,02,00,10.40
2013,07,25,02,01,10.40
2013,07,25,02,02,10.40
2013,07,25,02,03,10.40
2013,07,25,02,04,10.40
2013,07,25,02,05,10.40
2013,07,25,02,06,10.40
2013,07,25,02,07,10.40
2013,07,25,02,08,10.40
2013,07,25,02,09,10.30
2013,07,25,02,10,10.30
2013,07,25,02,11,10.30
2013,07,25,02,12,10.30
2013,07,25,02,13,10.20
2013,07,25,02,14,10.20
2013,07,25,02,15,10.20
2013,07,25,02,16,10.20
2013,07,25,02,17,10.10
2013,07,25,02,18,10.10
2013,07,25,02,19,10.10
2013,07,25,02,20,10.10
2013,07,25,02,21,10.00
2013,07,25,02,22,10.00
2013,07,25,02,23,9.90
2013,07,25,02,24,9.90
2013,07,25,02,25,9.90
2013,07,25,02,26,9.90
2013,07,25,02,27,9.90
2013,07,25,02,28,9.80
2013,07,25,02,29,9.80
2013,07,25,02,30,9.80
2013,07,25,02,31,9.80
2013,07,25,02,32,9.80
2013,07,25,02,33,9.80
2013,07,25,02,34,9.80
2013,07,25,02,35,9.80
2013,07,25,02,36,9.80
2013,07,25,02,37,9.80
2013,07,25,02,38,9.80
2013,07,25,02,39,9.80
2013,07,25,02,40,9.80
2013,07,25,02,41,9.70
2013,07,25,02,42,9.70
2013,07,25,02,43,9.70
2013,07,25,02,44,9.70
2013,07,25,02,45,9.70
2013,07,25,02,46,9.60
2013,07,25,02,47,9.60
2013,07,25,02,48,9.60
2013,07,25,02,49,9.60
2013,07,25,02,50,9.60
2013,07,25,02,51,9.60
2013,07,25,02,52,9.60
2013,07,25,02,53,9.50
2013,07,25,02,54,9.50
2013,07,25,02,55,9.50
2013,07,25,02,56,9.50
2013,07,25,02,57,9.50
2013,07,25,02,58,9.50
2013,07,25,02,59,9.40
2013,07,25,03,00,9.40
2013,07,25,03,01,9.40
2013,07,25,03,02,9.40
2013,07,25,03,03,9.40
2013,07,25,03,04,9.40
2013,07,25,03,05,9.40
2013,07,25,03,06,9.30
2013,07,25,03,07,9.30
2013,07,25,03,08,9.30
2013,07,25,03,09,9.30
2013,07,25,03,10,9.30
2013,07,25,03,11,9.30
2013,07,25,03,12,9.30
2013,07,25,03,13,9.20
2013,07,25,03,14,9.20
2013,07,25,03,15,9.20
2013,07,25,03,16,9.20
2013,07,25,03,17,9.20
2013,07,25,03,18,9.20
2013,07,25,03,19,9.20
2013,07,25,03,20,9.10
2013,07,25,03,21,9.10
2013,07,25,03,22,9.10
2013,07,25,03,23,9.10
2013,07,25,03,24,9.10
2013,07,25,03,25,9.10
2013,07,25,03,26,9.10
2013,07,25,03,27,9.10
2013,07,25,03,28,9.10
2013,07,25,03,29,9.10
2013,07,25,03,30,9.10
2013,07,25,03,31,9.10
2013,07,25,03,32,9.00
2013,07,25,03,33,9.00
2013,07,25,03,34,9.00
2013,07,25,03,35,9.00
2013,07,25,03,36,8.90
2013,07,25,03,37,8.90
2013,07,25,03,38,8.90
2013,07,25,03,39,8.90
2013,07,25,03,40,8.90
2013,07,25,03,41,8.80
2013,07,25,03,42,8.80
2013,07,25,03,43,8.80
2013,07,25,03,44,8.80
2013,07,25,03,45,8.80
2013,07,25,03,46,8.80
2013,07,25,03,47,8.80
2013,07,25,03,48,8.70
2013,07,25,03,49,8.70
2013,07,25,03,50,8.70
2013,07,25,03,51,8.70
2013,07,25,03,52,8.70
2013,07,25,03,53,8.70
2013,07,25,03,54,8.70
2013,07,25,03,55,8.70
2013,07,25,03,56,8.70
2013,07,25,03,57,8.60
2013,07,25,03,58,8.60
2013,07,25,03,59,8.60
2013,07,25,04,00,8.60
2013,07,25,04,01,8.60
2013,07,25,04,02,8.60
2013,07,25,04,03,8.60
2013,07,25,04,04,8.60
2013,07,25,04,05,8.60
2013,07,25,04,06,8.50
2013,07,25,04,07,8.50
2013,07,25,04,08,8.50
2013,07,25,04,09,8.50
2013,07,25,04,10,8.50
2013,07,25,04,11,8.50
2013,07,25,04,12,8.50
2013,07,25,04,13,8.40
2013,07,25,04,14,8.40
2013,07,25,04,15,8.40
2013,07,25,04,16,8.40
2013,07,25,04,17,8.40
2013,07,25,04,18,8.40
2013,07,25,04,19,8.30
2013,07,25,04,20,8.30
2013,07,25,04,21,8.30
2013,07,25,04,22,8.30
2013,07,25,04,23,8.30
2013,07,25,04,24,8.30
2013,07,25,04,25,8.30
2013,07,25,04,26,8.30
2013,07,25,04,27,8.30
2013,07,25,04,28,8.30
2013,07,25,04,29,8.30
2013,07,25,04,30,8.20
2013,07,25,04,31,8.20
2013,07,25,04,32,8.20
2013,07,25,04,33,8.20
2013,07,25,04,34,8.20
2013,07,25,04,35,8.20
2013,07,25,04,36,8.10
2013,07,25,04,37,8.10
2013,07,25,04,38,8.10
2013,07,25,04,39,8.10
2013,07,25,04,40,8.10
2013,07,25,04,41,8.10
2013,07,25,04,42,8.10
2013,07,25,04,43,8.10
2013,07,25,04,44,8.10
2013,07,25,04,45,8.10
2013,07,25,04,46,8.10
2013,07,25,04,47,8.00
2013,07,25,04,48,8.00
2013,07,25,04,49,8.00
2013,07,25,04,50,8.00
2013,07,25,04,51,8.00
2013,07,25,04,52,7.90
2013,07,25,04,53,7.90
2013,07,25,04,54,7.90
2013,07,25,04,55,7.90
2013,07,25,04,56,7.90
2013,07,25,04,57,7.90
2013,07,25,04,58,7.90
2013,07,25,04,59,7.90
2013,07,25,05,00,7.90
2013,07,25,05,01,7.90
2013,07,25,05,02,7.90
2013,07,25,05,03,7.90
2013,07,25,05,04,7.90
2013,07,25,05,05,7.90
2013,07,25,05,06,7.90
2013,07,25,05,07,7.90
2013,07,25,05,08,7.80
2013,07,25,05,09,7.80
2013,07,25,05,10,7.80
2013,07,25,05,11,7.80
2013,07,25,05,12,7.80
2013,07,25,05,13,7.80
2013,07,25,05,14,7.80
2013,07,25,05,15,7.80
2013,07,25,05,16,7.80
2013,07,25,05,17,7.80
2013,07,25,05,18,7.80
2013,07,25,05,19,7.80
2013,07,25,05,20,7.70
2013,07,25,05,21,7.70
2013,07,25,05,22,7.70
2013,07,25,05,23,7.70
2013,07,25,05,24,7.70
2013,07,25,05,25,7.70
2013,07,25,05,26,7.70
2013,07,25,05,27,7.70
2013,07,25,05,28,7.70
2013,07,25,05,29,7.60
2013,07,25,05,30,7.60
2013,07,25,05,31,7.60
2013,07,25,05,32,7.60
2013,07,25,05,33,7.60
2013,07,25,05,34,7.60
2013,07,25,05,35,7.60
2013,07,25,05,36,7.60
2013,07,25,05,37,7.60
2013,07,25,05,38,7.60
2013,07,25,05,39,7.60
2013,07,25,05,40,7.60
2013,07,25,05,41,7.60
2013,07,25,05,42,7.60
2013,07,25,05,43,7.50
2013,07,25,05,44,7.50
2013,07,25,05,45,7.50
2013,07,25,05,46,7.50
2013,07,25,05,47,7.50
2013,07,25,05,48,7.50
2013,07,25,05,49,7.50
2013,07,25,05,50,7.50
2013,07,25,05,51,7.50
2013,07,25,05,52,7.50
2013,07,25,05,53,7.50
2013,07,25,05,54,7.40
2013,07,25,05,55,7.50
2013,07,25,05,56,7.50
2013,07,25,05,57,7.40
2013,07,25,05,58,7.40
2013,07,25,05,59,7.40
2013,07,25,06,00,7.40
2013,07,25,06,01,7.40
2013,07,25,06,02,7.40
2013,07,25,06,03,7.40
2013,07,25,06,04,7.40
2013,07,25,06,05,7.40
2013,07,25,06,06,7.40
2013,07,25,06,07,7.40
2013,07,25,06,08,7.40
2013,07,25,06,09,7.40
2013,07,25,06,10,7.40
2013,07,25,06,11,7.40
2013,07,25,06,12,7.40
2013,07,25,06,13,7.50
2013,07,25,06,14,7.50
2013,07,25,06,15,7.50
2013,07,25,06,16,7.50
2013,07,25,06,17,7.50
2013,07,25,06,18,7.60
2013,07,25,06,19,7.60
2013,07,25,06,20,7.60
2013,07,25,06,21,7.60
2013,07,25,06,22,7.60
2013,07,25,06,23,7.60
2013,07,25,06,24,7.60
2013,07,25,06,25,7.60
2013,07,25,06,26,7.60
2013,07,25,06,27,7.60
2013,07,25,06,28,7.60
2013,07,25,06,29,7.60
2013,07,25,06,30,7.60
2013,07,25,06,31,7.70
2013,07,25,06,32,7.70
2013,07,25,06,33,7.70
2013,07,25,06,34,7.80
2013,07,25,06,35,7.80
2013,07,25,06,36,7.80
2013,07,25,06,37,7.80
2013,07,25,06,38,7.90
2013,07,25,06,39,7.90
2013,07,25,06,40,7.90
2013,07,25,06,41,7.90
2013,07,25,06,42,7.90
2013,07,25,06,43,7.90
2013,07,25,06,44,7.90
2013,07,25,06,45,7.90
2013,07,25,06,46,8.00
2013,07,25,06,47,8.00
2013,07,25,06,48,8.00
2013,07,25,06,49,8.00
2013,07,25,06,50,8.00
2013,07,25,06,51,8.00
2013,07,25,06,52,8.00
2013,07,25,06,53,8.10
2013,07,25,06,54,8.10
2013,07,25,06,55,8.10
2013,07,25,06,56,8.10
2013,07,25,06,57,8.20
2013,07,25,06,58,8.20
2013,07,25,06,59,8.20
2013,07,25,07,00,8.30
2013,07,25,07,01,8.30
2013,07,25,07,02,8.30
2013,07,25,07,03,8.40
2013,07,25,07,04,8.40
2013,07,25,07,05,8.50
2013,07,25,07,06,8.50
2013,07,25,07,07,8.60
2013,07,25,07,08,8.60
2013,07,25,07,09,8.70
2013,07,25,07,10,8.70
2013,07,25,07,11,8.70
2013,07,25,07,12,8.70
2013,07,25,07,13,8.80
2013,07,25,07,14,8.80
2013,07,25,07,15,8.80
2013,07,25,07,16,8.90
2013,07,25,07,17,8.90
2013,07,25,07,18,8.90
2013,07,25,07,19,8.90
2013,07,25,07,20,9.00
2013,07,25,07,21,9.00
2013,07,25,07,22,9.10
2013,07,25,07,23,9.10
2013,07,25,07,24,9.20
2013,07,25,07,25,9.20
2013,07,25,07,26,9.20
2013,07,25,07,27,9.30
2013,07,25,07,28,9.30
2013,07,25,07,29,9.40
2013,07,25,07,30,9.50
2013,07,25,07,31,9.50
2013,07,25,07,32,9.60
2013,07,25,07,33,9.60
2013,07,25,07,34,9.70
2013,07,25,07,35,9.80
2013,07,25,07,36,9.80
2013,07,25,07,37,9.90
2013,07,25,07,38,9.90
2013,07,25,07,39,9.90
2013,07,25,07,40,10.00
2013,07,25,07,41,10.10
2013,07,25,07,42,10.10
2013,07,25,07,43,10.20
2013,07,25,07,44,10.20
2013,07,25,07,45,10.30
2013,07,25,07,46,10.30
2013,07,25,07,47,10.40
2013,07,25,07,48,10.50
2013,07,25,07,49,10.60
2013,07,25,07,50,10.60
2013,07,25,07,51,10.70
2013,07,25,07,52,10.70
2013,07,25,07,53,10.80
2013,07,25,07,54,10.80
2013,07,25,07,55,10.90
2013,07,25,07,56,11.10
2013,07,25,07,57,11.20
2013,07,25,07,58,11.30
2013,07,25,07,59,11.50
2013,07,25,08,00,11.60
2013,07,25,08,01,11.70
2013,07,25,08,02,11.80
2013,07,25,08,03,11.80
2013,07,25,08,04,11.90
2013,07,25,08,05,11.90
2013,07,25,08,06,12.00
2013,07,25,08,07,12.10
2013,07,25,08,08,12.20
2013,07,25,08,09,12.30
2013,07,25,08,10,12.40
2013,07,25,08,11,12.40
2013,07,25,08,12,12.50
2013,07,25,08,13,12.60
2013,07,25,08,14,12.70
2013,07,25,08,15,12.80
2013,07,25,08,16,12.80
2013,07,25,08,17,12.80
2013,07,25,08,18,12.90
2013,07,25,08,19,12.90
2013,07,25,08,20,13.00
2013,07,25,08,21,13.00
2013,07,25,08,22,13.10
2013,07,25,08,23,13.20
2013,07,25,08,24,13.30
2013,07,25,08,25,13.40
2013,07,25,08,26,13.40
2013,07,25,08,27,13.50
2013,07,25,08,28,13.60
2013,07,25,08,29,13.60
2013,07,25,08,30,13.60
2013,07,25,08,31,13.60
2013,07,25,08,32,13.60
2013,07,25,08,33,13.70
2013,07,25,08,34,13.70
2013,07,25,08,35,13.70
2013,07,25,08,36,13.80
2013,07,25,08,37,13.80
2013,07,25,08,38,13.90
2013,07,25,08,39,13.90
2013,07,25,08,40,14.00
2013,07,25,08,41,14.00
2013,07,25,08,42,14.00
2013,07,25,08,43,14.00
2013,07,25,08,44,14.10
2013,07,25,08,45,14.10
2013,07,25,08,46,14.10
2013,07,25,08,47,14.10
2013,07,25,08,48,14.10
2013,07,25,08,49,14.10
2013,07,25,08,50,14.20
2013,07,25,08,51,14.20
2013,07,25,08,52,14.20
2013,07,25,08,53,14.20
2013,07,25,08,54,14.30
2013,07,25,08,55,14.30
2013,07,25,08,56,14.40
2013,07,25,08,57,14.50
2013,07,25,08,58,14.50
2013,07,25,08,59,14.60
2013,07,25,09,00,14.60
2013,07,25,09,01,14.70
2013,07,25,09,02,14.70
2013,07,25,09,03,14.70
2013,07,25,09,04,14.80
2013,07,25,09,05,14.80
2013,07,25,09,06,14.80
2013,07,25,09,07,14.70
2013,07,25,09,08,14.80
2013,07,25,09,09,14.80
2013,07,25,09,10,14.80
2013,07,25,09,11,14.80
2013,07,25,09,12,14.80
2013,07,25,09,13,14.80
2013,07,25,09,14,14.70
2013,07,25,09,15,14.70
2013,07,25,09,16,14.60
2013,07,25,09,17,14.60
2013,07,25,09,18,14.50
2013,07,25,09,19,14.50
2013,07,25,09,20,14.50
2013,07,25,09,21,14.50
2013,07,25,09,22,14.50
2013,07,25,09,23,14.50
2013,07,25,09,24,14.50
2013,07,25,09,25,14.50
2013,07,25,09,26,14.60
2013,07,25,09,27,14.60
2013,07,25,09,28,14.70
2013,07,25,09,29,14.70
2013,07,25,09,30,14.70
2013,07,25,09,31,14.80
2013,07,25,09,32,14.80
2013,07,25,09,33,14.90
2013,07,25,09,34,14.90
2013,07,25,09,35,15.00
2013,07,25,09,36,15.00
2013,07,25,09,37,15.00
2013,07,25,09,38,15.10
2013,07,25,09,39,15.10
2013,07,25,09,40,15.20
2013,07,25,09,41,15.20
2013,07,25,09,42,15.20
2013,07,25,09,43,15.30
2013,07,25,09,44,15.20
2013,07,25,09,45,15.20
2013,07,25,09,46,15.20
2013,07,25,09,47,15.30
2013,07,25,09,48,15.30
2013,07,25,09,49,15.30
2013,07,25,09,50,15.30
2013,07,25,09,51,15.30
2013,07,25,09,52,15.40
2013,07,25,09,53,15.40
2013,07,25,09,54,15.40
2013,07,25,09,55,15.40
2013,07,25,09,56,15.40
2013,07,25,09,57,15.40
2013,07,25,09,58,15.30
2013,07,25,09,59,15.30
2013,07,25,10,00,15.30
2013,07,25,10,01,15.20
2013,07,25,10,02,15.20
2013,07,25,10,03,15.30
2013,07,25,10,04,15.30
2013,07,25,10,05,15.30
2013,07,25,10,06,15.30
2013,07,25,10,07,15.30
2013,07,25,10,08,15.30
2013,07,25,10,09,15.30
2013,07,25,10,10,15.40
2013,07,25,10,11,15.40
2013,07,25,10,12,15.50
2013,07,25,10,13,15.60
2013,07,25,10,14,15.70
2013,07,25,10,15,15.80
2013,07,25,10,16,15.80
2013,07,25,10,17,15.90
2013,07,25,10,18,15.90
2013,07,25,10,19,16.00
2013,07,25,10,20,16.00
2013,07,25,10,21,16.00
2013,07,25,10,22,16.00
2013,07,25,10,23,16.00
2013,07,25,10,24,16.10
2013,07,25,10,25,16.10
2013,07,25,10,26,16.20
2013,07,25,10,27,16.20
2013,07,25,10,28,16.20
2013,07,25,10,29,16.30
2013,07,25,10,30,16.30
2013,07,25,10,31,16.40
2013,07,25,10,32,16.50
2013,07,25,10,33,16.50
2013,07,25,10,34,16.60
2013,07,25,10,35,16.60
2013,07,25,10,36,16.70
2013,07,25,10,37,16.70
2013,07,25,10,38,16.60
2013,07,25,10,39,16.50
2013,07,25,10,40,16.30
2013,07,25,10,41,16.10
2013,07,25,10,42,16.00
2013,07,25,10,43,16.00
2013,07,25,10,44,16.10
2013,07,25,10,45,16.10
2013,07,25,10,46,16.10
2013,07,25,10,47,16.00
2013,07,25,10,48,16.00
2013,07,25,10,49,15.90
2013,07,25,10,50,15.70
2013,07,25,10,51,15.70
2013,07,25,10,52,15.70
2013,07,25,10,53,15.70
2013,07,25,10,54,15.70
2013,07,25,10,55,15.70
2013,07,25,10,56,15.60
2013,07,25,10,57,15.60
2013,07,25,10,58,15.60
2013,07,25,10,59,15.60
2013,07,25,11,00,15.50
2013,07,25,11,01,15.40
2013,07,25,11,02,15.40
2013,07,25,11,03,15.40
2013,07,25,11,04,15.30
2013,07,25,11,05,15.30
2013,07,25,11,06,15.30
2013,07,25,11,07,15.30
2013,07,25,11,08,15.30
2013,07,25,11,09,15.30
2013,07,25,11,10,15.20
2013,07,25,11,11,15.30
2013,07,25,11,12,15.30
2013,07,25,11,13,15.20
2013,07,25,11,14,15.10
2013,07,25,11,15,15.00
2013,07,25,11,16,15.00
2013,07,25,11,17,14.90
2013,07,25,11,18,14.90
2013,07,25,11,19,14.90
2013,07,25,11,20,14.80
2013,07,25,11,21,14.80
2013,07,25,11,22,14.70
2013,07,25,11,23,14.70
2013,07,25,11,24,14.70
2013,07,25,11,25,14.70
2013,07,25,11,26,14.80
2013,07,25,11,27,14.80
2013,07,25,11,28,14.80
2013,07,25,11,29,14.80
2013,07,25,11,30,14.80
2013,07,25,11,31,14.80
2013,07,25,11,32,14.70
2013,07,25,11,33,14.70
2013,07,25,11,34,14.70
2013,07,25,11,35,14.50
2013,07,25,11,36,14.40
2013,07,25,11,37,14.20
2013,07,25,11,38,14.00
2013,07,25,11,39,14.00
2013,07,25,11,40,13.90
2013,07,25,11,41,13.90
2013,07,25,11,42,13.90
2013,07,25,11,43,13.90
2013,07,25,11,44,13.90
2013,07,25,11,45,13.90
2013,07,25,11,46,14.00
2013,07,25,11,47,14.00
2013,07,25,11,48,14.00
2013,07,25,11,49,14.00
2013,07,25,11,50,13.90
2013,07,25,11,51,13.80
2013,07,25,11,52,13.80
2013,07,25,11,53,13.80
2013,07,25,11,54,13.80
2013,07,25,11,55,13.80
2013,07,25,11,56,13.80
2013,07,25,11,57,13.70
2013,07,25,11,58,13.70
2013,07,25,11,59,13.70
2013,07,25,12,00,13.70
2013,07,25,12,01,13.80
2013,07,25,12,02,13.80
2013,07,25,12,03,13.90
2013,07,25,12,04,13.90
2013,07,25,12,05,13.90
2013,07,25,12,06,13.90
2013,07,25,12,07,13.90
2013,07,25,12,08,13.90
2013,07,25,12,09,13.90
2013,07,25,12,10,14.00
2013,07,25,12,11,14.10
2013,07,25,12,12,14.10
2013,07,25,12,13,14.10
2013,07,25,12,14,14.10
2013,07,25,12,15,14.10
2013,07,25,12,16,14.10
2013,07,25,12,17,14.20
2013,07,25,12,18,14.10
2013,07,25,12,19,14.10
2013,07,25,12,20,14.10
2013,07,25,12,21,14.10
2013,07,25,12,22,14.10
2013,07,25,12,23,14.10
2013,07,25,12,24,14.10
2013,07,25,12,25,14.00
2013,07,25,12,26,14.00
2013,07,25,12,27,13.90
2013,07,25,12,28,13.90
2013,07,25,12,29,13.90
2013,07,25,12,30,13.90
2013,07,25,12,31,14.00
2013,07,25,12,32,13.90
2013,07,25,12,33,13.90
2013,07,25,12,34,13.90
2013,07,25,12,35,13.90
2013,07,25,12,36,13.90
2013,07,25,12,37,13.90
2013,07,25,12,38,13.80
2013,07,25,12,39,13.80
2013,07,25,12,40,13.90
2013,07,25,12,41,13.90
2013,07,25,12,42,14.00
2013,07,25,12,43,14.10
2013,07,25,12,44,14.10
2013,07,25,12,45,14.10
2013,07,25,12,46,14.10
2013,07,25,12,47,14.10
2013,07,25,12,48,14.00
2013,07,25,12,49,14.10
2013,07,25,12,50,14.10
2013,07,25,12,51,14.20
2013,07,25,12,52,14.20
2013,07,25,12,53,14.20
2013,07,25,12,54,14.10
2013,07,25,12,55,14.10
2013,07,25,12,56,14.10
2013,07,25,12,57,14.10
2013,07,25,12,58,14.10
2013,07,25,12,59,14.20
2013,07,25,13,00,14.20
2013,07,25,13,01,14.30
2013,07,25,13,02,14.30
2013,07,25,13,03,14.30
2013,07,25,13,04,14.30
2013,07,25,13,05,14.20
2013,07,25,13,06,14.30
2013,07,25,13,07,14.30
2013,07,25,13,08,14.30
2013,07,25,13,09,14.40
2013,07,25,13,10,14.40
2013,07,25,13,11,14.50
2013,07,25,13,12,14.60
2013,07,25,13,13,14.60
2013,07,25,13,14,14.70
2013,07,25,13,15,14.60
2013,07,25,13,16,14.50
2013,07,25,13,17,14.30
2013,07,25,13,18,14.20
2013,07,25,13,19,14.20
2013,07,25,13,20,14.20
2013,07,25,13,21,14.20
2013,07,25,13,22,14.30
2013,07,25,13,23,14.30
2013,07,25,13,24,14.30
2013,07,25,13,25,14.30
2013,07,25,13,26,14.40
2013,07,25,13,27,14.50
2013,07,25,13,28,14.60
2013,07,25,13,29,14.50
2013,07,25,13,30,14.40
2013,07,25,13,31,14.30
2013,07,25,13,32,14.20
2013,07,25,13,33,14.20
2013,07,25,13,34,14.20
2013,07,25,13,35,14.20
2013,07,25,13,36,14.30
2013,07,25,13,37,14.40
2013,07,25,13,38,14.50
2013,07,25,13,39,14.60
2013,07,25,13,40,14.70
2013,07,25,13,41,14.70
2013,07,25,13,42,14.70
2013,07,25,13,43,14.70
2013,07,25,13,44,14.80
2013,07,25,13,45,14.90
2013,07,25,13,46,15.00
2013,07,25,13,47,15.20
2013,07,25,13,48,15.20
2013,07,25,13,49,15.30
2013,07,25,13,50,15.40
2013,07,25,13,51,15.40
2013,07,25,13,52,15.40
2013,07,25,13,53,15.40
2013,07,25,13,54,15.40
2013,07,25,13,55,15.50
2013,07,25,13,56,15.50
2013,07,25,13,57,15.60
2013,07,25,13,58,15.70
2013,07,25,13,59,15.80
2013,07,25,14,00,15.90
2013,07,25,14,01,16.00
2013,07,25,14,02,16.10
2013,07,25,14,03,16.20
2013,07,25,14,04,16.20
2013,07,25,14,05,16.20
2013,07,25,14,06,16.20
2013,07,25,14,07,16.20
2013,07,25,14,08,16.20
2013,07,25,14,09,16.20
2013,07,25,14,10,16.20
2013,07,25,14,11,16.30
2013,07,25,14,12,16.40
2013,07,25,14,13,16.40
2013,07,25,14,14,16.50
2013,07,25,14,15,16.70
2013,07,25,14,16,16.70
2013,07,25,14,17,16.80
2013,07,25,14,18,16.80
2013,07,25,14,19,16.80
2013,07,25,14,20,16.80
2013,07,25,14,21,16.80
2013,07,25,14,22,16.80
2013,07,25,14,23,16.80
2013,07,25,14,24,16.90
2013,07,25,14,25,17.00
2013,07,25,14,26,17.10
2013,07,25,14,27,17.20
2013,07,25,14,28,17.30
2013,07,25,14,29,17.30
2013,07,25,14,30,17.30
2013,07,25,14,31,17.20
2013,07,25,14,32,17.20
2013,07,25,14,33,17.10
2013,07,25,14,34,17.00
2013,07,25,14,35,17.00
2013,07,25,14,36,16.90
2013,07,25,14,37,16.90
2013,07,25,14,38,16.90
2013,07,25,14,39,16.90
2013,07,25,14,40,16.90
2013,07,25,14,41,17.00
2013,07,25,14,42,17.10
2013,07,25,14,43,17.20
2013,07,25,14,44,17.30
2013,07,25,14,45,17.40
2013,07,25,14,46,17.50
2013,07,25,14,47,17.60
2013,07,25,14,48,17.70
2013,07,25,14,49,17.80
2013,07,25,14,50,18.00
2013,07,25,14,51,18.10
2013,07,25,14,52,18.30
2013,07,25,14,53,18.30
2013,07,25,14,54,18.40
2013,07,25,14,55,18.40
2013,07,25,14,56,18.50
2013,07,25,14,57,18.60
2013,07,25,14,58,18.60
2013,07,25,14,59,18.70
2013,07,25,15,00,18.80
2013,07,25,15,01,18.90
2013,07,25,15,02,19.00
2013,07,25,15,03,19.10
2013,07,25,15,04,19.30
2013,07,25,15,05,19.50
2013,07,25,15,06,19.60
2013,07,25,15,07,19.80
2013,07,25,15,08,20.00
2013,07,25,15,09,20.20
2013,07,25,15,10,20.30
2013,07,25,15,11,20.50
2013,07,25,15,12,20.60
2013,07,25,15,13,20.70
2013,07,25,15,14,20.80
2013,07,25,15,15,20.80
2013,07,25,15,16,20.90
2013,07,25,15,17,21.00
2013,07,25,15,18,21.10
2013,07,25,15,19,21.20
2013,07,25,15,20,21.40
2013,07,25,15,21,21.50
2013,07,25,15,22,21.70
2013,07,25,15,23,21.80
2013,07,25,15,24,21.90
2013,07,25,15,25,22.00
2013,07,25,15,26,22.00
2013,07,25,15,27,22.10
2013,07,25,15,28,22.20
2013,07,25,15,29,22.30
2013,07,25,15,30,22.30
2013,07,25,15,31,22.40
2013,07,25,15,32,22.50
2013,07,25,15,33,22.60
2013,07,25,15,34,22.70
2013,07,25,15,35,22.80
2013,07,25,15,36,22.90
2013,07,25,15,37,23.00
2013,07,25,15,38,23.20
2013,07,25,15,39,23.30
2013,07,25,15,40,23.40
2013,07,25,15,41,23.50
2013,07,25,15,42,23.70
2013,07,25,15,43,23.80
2013,07,25,15,44,23.90
2013,07,25,15,45,24.00
2013,07,25,15,46,24.20
2013,07,25,15,47,24.30
2013,07,25,15,48,24.40
2013,07,25,15,49,24.50
2013,07,25,15,50,24.50
2013,07,25,15,51,24.60
2013,07,25,15,52,24.70
2013,07,25,15,53,24.70
2013,07,25,15,54,24.80
2013,07,25,15,55,24.80
2013,07,25,15,56,24.90
2013,07,25,15,57,24.90
2013,07,25,15,58,24.90
2013,07,25,15,59,24.90
2013,07,25,16,00,24.90
2013,07,25,16,01,24.90
2013,07,25,16,02,24.90
2013,07,25,16,03,24.90
2013,07,25,16,04,25.00
2013,07,25,16,05,25.00
2013,07,25,16,06,25.10
2013,07,25,16,07,25.10
2013,07,25,16,08,25.20
2013,07,25,16,09,25.20
2013,07,25,16,10,25.20
2013,07,25,16,11,25.30
2013,07,25,16,12,25.30
2013,07,25,16,13,25.30
2013,07,25,16,14,25.40
2013,07,25,16,15,25.30
2013,07,25,16,16,25.30
2013,07,25,16,17,25.30
2013,07,25,16,18,25.30
2013,07,25,16,19,25.40
2013,07,25,16,20,25.40
2013,07,25,16,21,25.40
2013,07,25,16,22,25.40
2013,07,25,16,23,25.40
2013,07,25,16,24,25.40
2013,07,25,16,25,25.40
2013,07,25,16,26,25.30
2013,07,25,16,27,25.20
2013,07,25,16,28,25.10
2013,07,25,16,29,25.00
2013,07,25,16,30,24.80
2013,07,25,16,31,24.70
2013,07,25,16,32,24.60
2013,07,25,16,33,24.50
2013,07,25,16,34,24.40
2013,07,25,16,35,24.30
2013,07,25,16,36,24.20
2013,07,25,16,37,24.10
2013,07,25,16,38,24.10
2013,07,25,16,39,24.10
2013,07,25,16,40,24.10
2013,07,25,16,41,24.00
2013,07,25,16,42,23.90
2013,07,25,16,43,23.90
2013,07,25,16,44,23.90
2013,07,25,16,45,23.90
2013,07,25,16,46,23.90
2013,07,25,16,47,24.00
2013,07,25,16,48,24.00
2013,07,25,16,49,24.00
2013,07,25,16,50,24.00
2013,07,25,16,51,24.00
2013,07,25,16,52,23.90
2013,07,25,16,53,23.90
2013,07,25,16,54,23.90
2013,07,25,16,55,23.80
2013,07,25,16,56,23.80
2013,07,25,16,57,23.80
2013,07,25,16,58,23.80
2013,07,25,16,59,23.70
2013,07,25,17,00,23.70
2013,07,25,17,01,23.60
2013,07,25,17,02,23.60
2013,07,25,17,03,23.60
2013,07,25,17,04,23.60
2013,07,25,17,05,23.60
2013,07,25,17,06,23.50
2013,07,25,17,07,23.50
2013,07,25,17,08,23.40
2013,07,25,17,09,23.40
2013,07,25,17,10,23.40
2013,07,25,17,11,23.40
2013,07,25,17,12,23.40
2013,07,25,17,13,23.40
2013,07,25,17,14,23.40
2013,07,25,17,15,23.40
2013,07,25,17,16,23.40
2013,07,25,17,17,23.40
2013,07,25,17,18,23.40
2013,07,25,17,19,23.40
2013,07,25,17,20,23.30
2013,07,25,17,21,23.30
2013,07,25,17,22,23.30
2013,07,25,17,23,23.20
2013,07,25,17,24,23.20
2013,07,25,17,25,23.20
2013,07,25,17,26,23.20
2013,07,25,17,27,23.20
2013,07,25,17,28,23.20
2013,07,25,17,29,23.10
2013,07,25,17,30,23.10
2013,07,25,17,31,23.00
2013,07,25,17,32,22.90
2013,07,25,17,33,22.80